Regional Weather Roundup
Issued by NWS

Home | Current Version | Previous Version | Graphics & Text | Print | Product List | Glossary On
Versions: 1 2 3 4 5 6 7 8 9 10 11 12 13 14 15 16 17 18 19 20 21 22 23 24 25 26 27 28 29 30 31 32 33 34 35 36 37 38 39 40 41 42 43 44 45 46 47 48 49 50
000
ASUS45 KBOU 171907
RWRCO

WEATHER ROUNDUP FOR COLORADO
NATIONAL WEATHER SERVICE DENVER/BOULDER CO
1200 PM MST WED DEC 17 2014

NOTE: "FAIR" INDICATES FEW OR NO CLOUDS BELOW 12000 FEET WITH NO
SIGNIFICANT WEATHER AND/OR OBSTRUCTIONS TO VISIBILITY.

COZ001>005-013-030-031-172000-
...NORTHWEST COLORADO...

CITY           SKY/WX    TMP DP  RH WIND       PRES   REMARKS
CRAIG          CLOUDY    26  24  92 SW5       29.99F WCI  20
HAYDEN         CLOUDY    27  23  86 CALM      29.97F
MEEKER         CLOUDY    29  26  89 SW3       29.96F
MOUNT WERNER   NOT AVBL
STEAMBOAT SPGS CLOUDY    28  25  87 CALM      29.96F
WALDEN         PTSUNNY   23  19  86 CALM      29.94F
$$

COZ006>008-011-172000-
...WEST CENTRAL VALLEYS...

CITY           SKY/WX    TMP DP  RH WIND       PRES   REMARKS
GRAND JUNCTION CLOUDY    36  35  96 CALM      29.98F
MONTROSE       MOSUNNY   39  29  67 VRB3      29.97F
EAGLE          CLOUDY    25  19  80 CALM      30.02F
RIFLE          CLOUDY    35  28  75 CALM      29.97F
DELTA          PTSUNNY   41  34  76 CALM      29.97F
NUCLA          FLURRIES  36  32  87 CALM      30.02F
$$

COZ017>023-064>068-172000-
...SOUTHWEST COLORADO...

CITY           SKY/WX    TMP DP  RH WIND       PRES   REMARKS
DURANGO        CLOUDY    37  25  61 SE6       29.97F
CORTEZ         PTSUNNY   40  28  62 CALM      29.97F
PAGOSA SPRINGS CLOUDY    35  22  58 CALM      29.97F
TELLURIDE      NOT AVBL
WOLF CREEK PAS SNOW      18  18 100 MISG      29.97F VSB 1/2
$$

COZ009-010-012-014-032>034-037-058>063-172000-
...CENTRAL COLORADO...

CITY           SKY/WX    TMP DP  RH WIND       PRES   REMARKS
ASPEN          PTSUNNY   32  21  64 N3        29.93F
BUENA VISTA    CLOUDY    32  16  50 SE3       29.95F
COPPER MTN     LGT SNOW  25  14  63 SW3       29.96F
BERTHOUD PASS  FLURRIES  18  12  79 MISG      29.97F
COTTONWOOD PAS CLOUDY    30  19  64 CALM      29.95F
GUNNISON       PTSUNNY   21  14  73 CALM      30.02F
KREMMLING      FLURRIES  23  14  68 CALM      30.00F
LEADVILLE      CLOUDY    24  14  65 S6        29.93F WCI  17
MONARCH PASS   CLOUDY    19  18  93 MISG      30.05F
SALIDA         CLOUDY    32  21  65 CALM      30.04F
SUNLIGHT       LGT SNOW  27  25  93 CALM      29.98F
WILKERSON PASS LGT SNOW  23  18  80 CALM      29.98F
$$

COZ069>075-172000-
...SAN LUIS VALLEY/SANGRE DE CRISTO MOUNTAINS...

CITY           SKY/WX    TMP DP  RH WIND       PRES   REMARKS
ALAMOSA        LGT SNOW  26  22  84 CALM      29.98F VSB 1
LA VETA PASS   LGT SNOW  27  21  80 SW3       29.95F
SAGUACHE       CLOUDY    32  21  64 S13       29.98F WCI  22
$$

COZ035-036-038>040-172000-
...NORTHERN COLORADO FRONT RANGE...

CITY           SKY/WX    TMP DP  RH WIND       PRES   REMARKS
DENVER INTL AP PTSUNNY   36  24  62 CALM      29.92F
DMNS CITY PARK   N/A     40  22  49 E2        29.92F
AURORA         PTSUNNY   37  23  57 NE5       29.92F
FRONT RANGE AP NOT AVBL
ERIE MUNI ARPT   N/A     39  25  57 MISG      29.93F
BOULDER MUN AP CLOUDY    41  25  52 CALM      29.92F
CENTENNIAL     PTSUNNY   37  24  59 E3        29.91F
BROOMFIELD     PTSUNNY   39  23  52 CALM      29.92F
FORT COLLINS   PTSUNNY   37  27  65 S5        29.95F
LONGMONT       PTSUNNY   44  25  48 CALM      29.94F
$$

COZ041-046-047-076>085-087-088-172000-
...PIKES PEAK/PALMER DIVIDE AND SOUTHERN FOOTHILLS...

CITY           SKY/WX    TMP DP  RH WIND       PRES   REMARKS
COLO. SPRINGS  CLOUDY    41  21  44 S9        29.93F
A. F. ACADEMY  CLOUDY    42  20  41 S3        29.91F
ELLICOTT       NOT AVBL
FALCON         CLOUDY    42  19  40 SW3       29.93F
FORT CARSON    CLOUDY    31  22  68 S9        29.92F WCI  23
LIMON          CLOUDY    28  22  78 CALM      29.93F
MONUMENT HILL  CLOUDY    39  19  45 CALM      29.91F
TRINIDAD       CLOUDY    39  27  62 E8        29.91F
$$

COZ042>045-048>051-090-091-172000-
...NORTHEAST COLORADO...

CITY           SKY/WX    TMP DP  RH WIND       PRES   REMARKS
GREELEY ARPT   PTSUNNY   30  19  64 CALM      29.94F
AKRON          CLOUDY    22  21  96 SE8       29.96F FOG     WCI  12
BURLINGTON     FOG       24  22  91 E6        29.99F VSB 1/4 WCI  17
WRAY           CLOUDY    25  25 100 SE8       30.05F FOG     WCI  16
STERLING       CLOUDY    27  25  93 S3        30.00F FOG
HOLYOKE        NOT AVBL
FORT MORGAN    PTSUNNY   19  14  81 CALM      29.98F
$$

COZ086-089-092>099-172000-
...SOUTHEAST COLORADO...

CITY           SKY/WX    TMP DP  RH WIND       PRES   REMARKS
PUEBLO         NOT AVBL
LA JUNTA       CLOUDY    28  23  81 MISG      29.98F
LAMAR          CLOUDY    28  24  85 NE5       29.98F WCI  23
SPRINGFIELD      N/A     37  26  64 VRB6      29.94F
$$


USA.gov is the U.S. government's official web portal to all federal, state and local government web resources and services.